sim
Sign-in with your pilot id or email,
or register
Callsign
Passwort

Schedule Details

Flight Number: RYR1584 (1)
Departure: Leeds Bradford Airport (EGNM) at 12:45
Arrival: Fuerteventura Airport (GCFV) at 17:10
Route: Ryanair Passenger Schedule. Enter filed route here before submitting Pirep.

Weather Information
Getting current METAR information for EGNM 182050Z 07006KT CAVOK 08/06 Q1028
Getting current METAR information for GCFV 182030Z 36014KT 9999 FEW045 18/11 Q1019

Schedule Frequency

Route Map